Location: Colossi of Memnon
(25.7167°N, 32.6167°E)
Time: 03:02:27
(UTC+00:00)

OAO 3 Rocket - Pass Details

Date: 05 March 2021
Orbit: 629 x 682 km, 35.0° (Epoch: 21 April)

Event Time Altitude Azimuth Distance (km) Brightness Sun altitude
Exits shadow 02:12:36 40° 11° (N) 980 4.1 -27.0°
Drops below altitude 10° 02:16:20 10° 55° (NE) 2,063 6.5 -26.2°
Sets 02:18:47 0° 61° (ENE) 2,965 7.6 -25.6°
